Selawik, AK

1:09 AM AKDT on May 30, 2017 (GMT -0800)
Selawik

Weather History for PASK - July, 2013

Change the Weather History Date:

Wednesday, July 24, 2013

  Actual Average Record
Temperature  
Mean Temperature 56 °F -  
Max Temperature 60 °F 59 °F 75 °F (2004)
Min Temperature 51 °F 48 °F 42 °F (2000)
Degree Days  
Heating Degree Days 10    
Growing Degree Days 6 (Base 50)    
Moisture  
Dew Point 43 °F    
Average Humidity 64    
Maximum Humidity 82    
Minimum Humidity 45    
Precipitation  
Precipitation 0.00 in - - ()
Sea Level Pressure  
Sea Level Pressure 30.12 in    
Wind  
Wind Speed 14 mph (West)    
Max Wind Speed 18 mph    
Max Gust Speed 24 mph    
Visibility 10 miles    
Events      
Averages and records for this station are not official NWS values.
T = Trace of Precipitation, MM = Missing Value Source: NWS Daily Summary

Daily Weather History Graph

Daily Weather History Graph

Search for Another Location

Airport or City:

Trip Planner

Search our weather history database for the weather conditions in past years. The results will help you decide how hot, cold, wet, or windy it might be!

Date:

Astronomy

Jul. 24, 2013 Rise Set
Actual Time 4:45 AM AKDT 12:44 AM AKDT
Civil Twilight Sun does not set Sun does not set
Nautical Twilight Sun does not set Sun does not set
Astronomical Twilight Sun does not set Sun does not set
Moon 11:41 PM AKDT (7/24) 9:18 AM AKDT (7/24)
Length of Visible Light 24h 00m
Length of Day
19h 59m
Waning Gibbous, 94% of the Moon is Illuminated
Jul 24
Waning Gibbous
Jul 29
Last Quarter
Aug 6
New
Aug 14
First Quarter
Aug 20
Full

Hourly Weather History & Observations

Time (AKDT) Temp. Dew Point Humidity Pressure Visibility Wind Dir Wind Speed Gust Speed Precip Events Conditions
12:16 AM 55.4 °F 48.2 °F 77% 30.10 in 10.0 mi West 13.8 mph 20.7 mph N/A   Overcast
12:36 AM 55.4 °F 48.2 °F 77% 30.10 in 10.0 mi West 15.0 mph 19.6 mph N/A   Overcast
12:56 AM 53.6 °F 48.2 °F 82% 30.10 in 10.0 mi West 13.8 mph 18.4 mph N/A   Overcast
1:16 AM 55.4 °F 48.2 °F 77% 30.10 in 10.0 mi West 13.8 mph 19.6 mph N/A   Overcast
1:36 AM 53.6 °F 48.2 °F 82% 30.10 in 10.0 mi West 11.5 mph 16.1 mph N/A   Overcast
1:56 AM 53.6 °F 48.2 °F 82% 30.10 in 10.0 mi West 10.4 mph 18.4 mph N/A   Overcast
2:16 AM 55.4 °F 48.2 °F 77% 30.11 in 10.0 mi West 10.4 mph 18.4 mph N/A   Overcast
2:36 AM 55.4 °F 48.2 °F 77% 30.11 in 10.0 mi West 12.7 mph - N/A   Overcast
2:56 AM 53.6 °F 48.2 °F 82% 30.11 in 10.0 mi West 12.7 mph 17.3 mph N/A   Overcast
3:16 AM 53.6 °F 48.2 °F 82% 30.10 in 10.0 mi West 11.5 mph 19.6 mph N/A   Overcast
3:36 AM 53.6 °F 48.2 °F 82% 30.10 in 10.0 mi West 11.5 mph - N/A   Overcast
3:56 AM 53.6 °F 48.2 °F 82% 30.10 in 10.0 mi West 15.0 mph - N/A   Overcast
4:16 AM 53.6 °F 48.2 °F 82% 30.10 in 10.0 mi West 12.7 mph 19.6 mph N/A   Overcast
4:36 AM 53.6 °F 48.2 °F 82% 30.10 in 10.0 mi West 13.8 mph 20.7 mph N/A   Overcast
4:56 AM 53.6 °F 48.2 °F 82% 30.10 in 10.0 mi West 11.5 mph 17.3 mph N/A   Overcast
5:16 AM 53.6 °F 48.2 °F 82% 30.10 in 10.0 mi West 13.8 mph 18.4 mph N/A   Overcast
5:36 AM 53.6 °F 46.4 °F 77% 30.10 in 10.0 mi West 16.1 mph 19.6 mph N/A   Overcast
5:56 AM 53.6 °F 44.6 °F 72% 30.10 in 10.0 mi West 12.7 mph 20.7 mph N/A   Overcast
6:16 AM 53.6 °F 44.6 °F 72% 30.10 in 10.0 mi West 13.8 mph 19.6 mph N/A   Overcast
6:36 AM 53.6 °F 46.4 °F 77% 30.10 in 10.0 mi West 13.8 mph - N/A   Overcast
6:56 AM 53.6 °F 46.4 °F 77% 30.10 in 10.0 mi West 13.8 mph 21.9 mph N/A   Overcast
7:16 AM 53.6 °F 46.4 °F 77% 30.10 in 10.0 mi West 15.0 mph 18.4 mph N/A   Overcast
7:36 AM 53.6 °F 44.6 °F 72% 30.10 in 10.0 mi West 11.5 mph 19.6 mph N/A   Overcast
7:56 AM 53.6 °F 44.6 °F 72% 30.10 in 10.0 mi West 15.0 mph 19.6 mph N/A   Overcast
8:16 AM 53.6 °F 44.6 °F 72% 30.10 in 10.0 mi West 12.7 mph 19.6 mph N/A   Overcast
8:36 AM 53.6 °F 44.6 °F 72% 30.10 in 10.0 mi West 13.8 mph 19.6 mph N/A   Overcast
8:56 AM 53.6 °F 44.6 °F 72% 30.10 in 10.0 mi West 15.0 mph 21.9 mph N/A   Overcast
9:16 AM 53.6 °F 42.8 °F 67% 30.10 in 10.0 mi West 11.5 mph 20.7 mph N/A   Overcast
9:36 AM 53.6 °F 42.8 °F 67% 30.10 in 10.0 mi West 16.1 mph 21.9 mph N/A   Overcast
9:56 AM 53.6 °F 39.2 °F 58% 30.11 in 10.0 mi West 13.8 mph 19.6 mph N/A   Overcast
10:16 AM 53.6 °F 39.2 °F 58% 30.11 in 10.0 mi West 16.1 mph 21.9 mph N/A   Overcast
10:36 AM 53.6 °F 37.4 °F 54% 30.11 in 10.0 mi West 13.8 mph 20.7 mph N/A   Overcast
10:56 AM 53.6 °F 37.4 °F 54% 30.12 in 10.0 mi West 13.8 mph - N/A   Overcast
11:16 AM 51.8 °F 37.4 °F 58% 30.12 in 10.0 mi West 12.7 mph 17.3 mph N/A   Overcast
11:36 AM 51.8 °F 39.2 °F 62% 30.12 in 10.0 mi West 13.8 mph 20.7 mph N/A   Overcast
11:56 AM 51.8 °F 39.2 °F 62% 30.12 in 10.0 mi West 13.8 mph 23.0 mph N/A   Overcast
12:16 PM 53.6 °F 39.2 °F 58% 30.12 in 10.0 mi West 15.0 mph 21.9 mph N/A   Overcast
12:36 PM 53.6 °F 35.6 °F 51% 30.12 in 10.0 mi West 16.1 mph 23.0 mph N/A   Overcast
12:56 PM 53.6 °F 35.6 °F 51% 30.13 in 10.0 mi West 15.0 mph 23.0 mph N/A   Overcast
1:16 PM 55.4 °F 35.6 °F 47% 30.13 in 10.0 mi WNW 13.8 mph 23.0 mph N/A   Overcast
1:36 PM 55.4 °F 37.4 °F 51% 30.13 in 10.0 mi West 16.1 mph 24.2 mph N/A   Overcast
1:56 PM 55.4 °F 37.4 °F 51% 30.13 in 10.0 mi West 16.1 mph 21.9 mph N/A   Overcast
2:16 PM 55.4 °F 37.4 °F 51% 30.13 in 10.0 mi WNW 15.0 mph - N/A   Overcast
2:36 PM 55.4 °F 37.4 °F 51% 30.13 in 10.0 mi WNW 18.4 mph 24.2 mph N/A   Overcast
2:56 PM 57.2 °F 37.4 °F 48% 30.13 in 10.0 mi West 16.1 mph 21.9 mph N/A   Overcast
3:16 PM 55.4 °F 37.4 °F 51% 30.13 in 10.0 mi West 16.1 mph 19.6 mph N/A   Overcast
3:36 PM 55.4 °F 37.4 °F 51% 30.13 in 10.0 mi West 18.4 mph 24.2 mph N/A   Overcast
3:56 PM 55.4 °F 39.2 °F 54% 30.14 in 10.0 mi West 15.0 mph 21.9 mph N/A   Overcast
4:16 PM 55.4 °F 39.2 °F 54% 30.14 in 10.0 mi West 11.5 mph 19.6 mph N/A   Overcast
4:36 PM 57.2 °F 39.2 °F 51% 30.14 in 10.0 mi West 13.8 mph 19.6 mph N/A   Mostly Cloudy
4:56 PM 57.2 °F 39.2 °F 51% 30.14 in 10.0 mi West 12.7 mph 19.6 mph N/A   Overcast
5:16 PM 57.2 °F 39.2 °F 51% 30.14 in 10.0 mi West 15.0 mph 19.6 mph N/A   Overcast
5:36 PM 57.2 °F 39.2 °F 51% 30.13 in 10.0 mi West 17.3 mph 21.9 mph N/A   Mostly Cloudy
5:56 PM 57.2 °F 37.4 °F 48% 30.13 in 10.0 mi West 16.1 mph 21.9 mph N/A   Clear
6:16 PM 59.0 °F 39.2 °F 48% 30.13 in 10.0 mi West 13.8 mph 20.7 mph N/A   Clear
6:36 PM 59.0 °F 37.4 °F 45% 30.13 in 10.0 mi West 12.7 mph - N/A   Clear
6:56 PM 60.8 °F 39.2 °F 45% 30.13 in 10.0 mi West 11.5 mph 18.4 mph N/A   Clear
7:16 PM 60.8 °F 39.2 °F 45% 30.13 in 10.0 mi West 13.8 mph 20.7 mph N/A   Clear
7:36 PM 60.8 °F 39.2 °F 45% 30.13 in 10.0 mi West 13.8 mph 20.7 mph N/A   Clear
7:56 PM 60.8 °F 39.2 °F 45% 30.13 in 10.0 mi West 12.7 mph 20.7 mph N/A   Clear
8:16 PM 59.0 °F 44.6 °F 59% 30.13 in 10.0 mi West 13.8 mph 20.7 mph N/A   Clear
8:36 PM 57.2 °F 48.2 °F 72% 30.13 in 10.0 mi WSW 13.8 mph 20.7 mph N/A   Clear
8:56 PM 59.0 °F 42.8 °F 55% 30.13 in 10.0 mi West 11.5 mph 16.1 mph N/A   Clear
9:16 PM 59.0 °F 44.6 °F 59% 30.14 in 10.0 mi West 12.7 mph 18.4 mph N/A   Clear
9:36 PM 57.2 °F 44.6 °F 63% 30.13 in 10.0 mi West 16.1 mph 19.6 mph N/A   Clear
9:56 PM 57.2 °F 44.6 °F 63% 30.13 in 10.0 mi West 15.0 mph 20.7 mph N/A   Clear
10:16 PM 57.2 °F 44.6 °F 63% 30.13 in 10.0 mi West 11.5 mph - N/A   Clear
10:36 PM 57.2 °F 46.4 °F 67% 30.13 in 10.0 mi West 15.0 mph 20.7 mph N/A   Clear
10:56 PM 55.4 °F 44.6 °F 67% 30.13 in 10.0 mi West 12.7 mph - N/A   Clear
11:16 PM 55.4 °F 46.4 °F 72% 30.14 in 10.0 mi West 13.8 mph - N/A   Clear
11:36 PM 55.4 °F 46.4 °F 72% 30.14 in 10.0 mi West 13.8 mph 19.6 mph N/A   Clear
11:56 PM 53.6 °F 46.4 °F 77% 30.14 in 10.0 mi West 13.8 mph - N/A   Clear